Time,TemperatureF,DewpointF,PressureIn,WindDirection,WindDirectionDegrees,WindSpeedMPH,WindSpeedGustMPH,Humidity,HourlyPrecipIn,Conditions,Clouds,dailyrainin,SoftwareType,DateUTC
2013-09-08 00:00:00,66.7,63.0,30.09,WSW,252,0.0,5.0,88,0.00,,,0.00,Wunderground v.1.15,2013-09-08 04:00:00,
2013-09-08 00:05:00,66.6,62.9,30.09,WSW,252,0.0,5.0,88,0.00,,,0.00,Wunderground v.1.15,2013-09-08 04:05:00,
2013-09-08 00:10:00,66.6,63.3,30.09,WSW,252,0.0,5.0,89,0.00,,,0.00,Wunderground v.1.15,2013-09-08 04:10:00,
2013-09-08 00:15:00,66.6,63.3,30.08,WSW,252,0.0,5.0,89,0.00,,,0.00,Wunderground v.1.15,2013-09-08 04:15:00,
2013-09-08 00:20:00,66.6,63.3,30.08,WSW,252,0.0,5.0,89,0.00,,,0.00,Wunderground v.1.15,2013-09-08 04:20:00,
2013-09-08 00:25:00,66.5,63.2,30.08,WSW,252,0.0,5.0,89,0.00,,,0.00,Wunderground v.1.15,2013-09-08 04:25:00,
2013-09-08 00:30:00,66.4,63.1,30.09,WSW,252,0.0,5.0,89,0.00,,,0.00,Wunderground v.1.15,2013-09-08 04:30:00,
2013-09-08 00:35:00,66.3,63.3,30.09,WSW,252,0.0,5.0,90,0.00,,,0.00,Wunderground v.1.15,2013-09-08 04:35:00,
2013-09-08 00:40:00,66.2,63.2,30.09,WSW,252,0.0,5.0,90,0.00,,,0.00,Wunderground v.1.15,2013-09-08 04:40:00,
2013-09-08 00:45:00,66.1,63.1,30.09,WSW,252,0.0,5.0,90,0.00,,,0.00,Wunderground v.1.15,2013-09-08 04:45:00,
2013-09-08 00:50:00,66.0,63.0,30.09,WSW,252,0.0,5.0,90,0.00,,,0.00,Wunderground v.1.15,2013-09-08 04:50:00,
2013-09-08 00:55:00,66.0,63.0,30.09,WSW,252,0.0,5.0,90,0.00,,,0.00,Wunderground v.1.15,2013-09-08 04:55:00,
2013-09-08 01:05:00,66.1,63.1,30.09,WSW,252,0.0,5.0,90,0.00,,,0.00,Wunderground v.1.15,2013-09-08 05:05:00,
2013-09-08 01:10:00,66.0,63.0,30.09,WSW,252,0.0,5.0,90,0.00,,,0.00,Wunderground v.1.15,2013-09-08 05:10:00,
2013-09-08 01:15:00,65.8,62.8,30.09,WSW,252,0.0,5.0,90,0.00,,,0.00,Wunderground v.1.15,2013-09-08 05:15:00,
2013-09-08 01:25:00,65.5,62.5,30.09,WSW,252,0.0,5.0,90,0.00,,,0.00,Wunderground v.1.15,2013-09-08 05:25:00,
2013-09-08 01:30:00,65.4,62.4,30.09,WSW,252,0.0,5.0,90,0.00,,,0.00,Wunderground v.1.15,2013-09-08 05:30:00,
2013-09-08 01:35:00,65.2,62.2,30.09,WSW,252,0.0,5.0,90,0.00,,,0.00,Wunderground v.1.15,2013-09-08 05:35:00,
2013-09-08 01:40:00,65.1,62.1,30.09,WSW,252,0.0,5.0,90,0.00,,,0.00,Wunderground v.1.15,2013-09-08 05:40:00,
2013-09-08 01:45:00,65.0,62.3,30.09,WSW,252,0.0,5.0,91,0.00,,,0.00,Wunderground v.1.15,2013-09-08 05:45:00,
2013-09-08 01:55:00,64.7,62.0,30.09,WSW,252,0.0,5.0,91,0.00,,,0.00,Wunderground v.1.15,2013-09-08 05:55:00,
2013-09-08 02:00:00,64.6,61.9,30.09,WSW,252,0.0,5.0,91,0.00,,,0.00,Wunderground v.1.15,2013-09-08 06:00:00,
2013-09-08 02:05:00,64.5,61.8,30.09,WSW,252,0.0,5.0,91,0.00,,,0.00,Wunderground v.1.15,2013-09-08 06:05:00,
2013-09-08 02:10:00,64.4,61.7,30.09,WSW,252,0.0,5.0,91,0.00,,,0.00,Wunderground v.1.15,2013-09-08 06:10:00,
2013-09-08 02:15:00,64.4,62.0,30.09,WSW,252,0.0,5.0,92,0.00,,,0.00,Wunderground v.1.15,2013-09-08 06:15:00,
2013-09-08 02:20:00,64.3,61.9,30.08,WSW,252,0.0,5.0,92,0.00,,,0.00,Wunderground v.1.15,2013-09-08 06:20:00,
2013-09-08 02:25:00,64.3,61.6,30.08,WSW,252,0.0,5.0,91,0.00,,,0.00,Wunderground v.1.15,2013-09-08 06:25:00,
2013-09-08 02:30:00,64.2,61.8,30.08,WSW,252,0.0,5.0,92,0.00,,,0.00,Wunderground v.1.15,2013-09-08 06:30:00,
2013-09-08 02:35:00,64.2,61.8,30.08,WSW,252,0.0,5.0,92,0.00,,,0.00,Wunderground v.1.15,2013-09-08 06:35:00,
2013-09-08 02:40:00,64.2,61.8,30.08,WSW,252,0.0,5.0,92,0.00,,,0.00,Wunderground v.1.15,2013-09-08 06:40:00,
2013-09-08 02:45:00,64.2,61.8,30.08,WSW,252,0.0,5.0,92,0.00,,,0.00,Wunderground v.1.15,2013-09-08 06:45:00,
2013-09-08 02:50:00,64.1,61.7,30.08,WSW,252,0.0,5.0,92,0.00,,,0.00,Wunderground v.1.15,2013-09-08 06:50:00,
2013-09-08 02:55:00,64.1,61.7,30.08,WSW,252,0.0,5.0,92,0.00,,,0.00,Wunderground v.1.15,2013-09-08 06:55:00,
2013-09-08 03:00:00,64.1,61.7,30.07,WSW,252,0.0,5.0,92,0.00,,,0.00,Wunderground v.1.15,2013-09-08 07:00:00,
2013-09-08 03:05:00,64.1,61.7,30.07,WSW,252,0.0,5.0,92,0.00,,,0.00,Wunderground v.1.15,2013-09-08 07:05:00,
2013-09-08 03:10:00,64.0,61.6,30.07,WSW,252,0.0,5.0,92,0.00,,,0.00,Wunderground v.1.15,2013-09-08 07:10:00,
2013-09-08 03:20:00,63.9,61.5,30.07,WSW,252,0.0,5.0,92,0.00,,,0.00,Wunderground v.1.15,2013-09-08 07:20:00,
2013-09-08 03:25:00,63.8,61.7,30.07,WSW,252,0.0,5.0,93,0.00,,,0.00,Wunderground v.1.15,2013-09-08 07:25:00,
2013-09-08 03:35:00,63.7,61.6,30.07,WSW,252,0.0,5.0,93,0.00,,,0.00,Wunderground v.1.15,2013-09-08 07:35:00,
2013-09-08 03:45:00,63.7,61.6,30.07,WSW,252,0.0,5.0,93,0.00,,,0.00,Wunderground v.1.15,2013-09-08 07:45:00,
2013-09-08 03:50:00,63.7,61.6,30.07,WSW,252,0.0,5.0,93,0.00,,,0.00,Wunderground v.1.15,2013-09-08 07:50:00,
2013-09-08 04:00:00,63.6,61.5,30.07,WSW,252,0.0,5.0,93,0.00,,,0.00,Wunderground v.1.15,2013-09-08 08:00:00,
2013-09-08 04:10:00,63.5,61.7,30.07,WSW,252,0.0,5.0,94,0.00,,,0.00,Wunderground v.1.15,2013-09-08 08:10:00,
2013-09-08 04:15:00,63.5,61.7,30.07,WSW,252,0.0,5.0,94,0.00,,,0.00,Wunderground v.1.15,2013-09-08 08:15:00,
2013-09-08 04:25:00,63.3,61.5,30.06,WSW,252,0.0,5.0,94,0.00,,,0.00,Wunderground v.1.15,2013-09-08 08:25:00,
2013-09-08 04:30:00,63.3,61.5,30.06,WSW,252,0.0,5.0,94,0.00,,,0.00,Wunderground v.1.15,2013-09-08 08:30:00,
2013-09-08 04:40:00,63.3,61.5,30.06,WSW,252,0.0,5.0,94,0.00,,,0.00,Wunderground v.1.15,2013-09-08 08:40:00,
2013-09-08 04:45:00,63.3,61.5,30.06,WSW,252,0.0,5.0,94,0.00,,,0.00,Wunderground v.1.15,2013-09-08 08:45:00,
2013-09-08 04:50:00,63.2,61.4,30.06,WSW,252,0.0,5.0,94,0.00,,,0.00,Wunderground v.1.15,2013-09-08 08:50:00,
2013-09-08 04:55:00,63.2,61.4,30.06,WSW,252,0.0,5.0,94,0.00,,,0.00,Wunderground v.1.15,2013-09-08 08:55:00,
2013-09-08 05:00:00,63.2,61.7,30.06,WSW,252,0.0,5.0,95,0.00,,,0.00,Wunderground v.1.15,2013-09-08 09:00:00,
2013-09-08 05:05:00,63.3,61.8,30.06,WSW,252,0.0,5.0,95,0.00,,,0.00,Wunderground v.1.15,2013-09-08 09:05:00,
2013-09-08 05:10:00,63.4,61.6,30.06,WSW,252,0.0,5.0,94,0.00,,,0.00,Wunderground v.1.15,2013-09-08 09:10:00,
2013-09-08 05:15:00,63.4,61.6,30.06,WSW,252,0.0,5.0,94,0.00,,,0.00,Wunderground v.1.15,2013-09-08 09:15:00,
2013-09-08 05:20:00,63.5,61.7,30.06,WSW,252,0.0,5.0,94,0.00,,,0.00,Wunderground v.1.15,2013-09-08 09:20:00,
2013-09-08 05:25:00,63.5,61.7,30.06,WSW,252,0.0,5.0,94,0.00,,,0.00,Wunderground v.1.15,2013-09-08 09:25:00,
2013-09-08 05:30:00,63.5,61.7,30.06,WSW,252,0.0,5.0,94,0.00,,,0.00,Wunderground v.1.15,2013-09-08 09:30:00,
2013-09-08 05:35:00,63.3,61.5,30.06,WSW,252,0.0,5.0,94,0.00,,,0.00,Wunderground v.1.15,2013-09-08 09:35:00,
2013-09-08 05:40:00,63.2,61.4,30.06,WSW,252,0.0,5.0,94,0.00,,,0.00,Wunderground v.1.15,2013-09-08 09:40:00,
2013-09-08 05:45:00,63.1,61.3,30.06,WSW,252,0.0,5.0,94,0.00,,,0.00,Wunderground v.1.15,2013-09-08 09:45:00,
2013-09-08 05:55:00,63.1,61.6,30.06,WSW,252,0.0,5.0,95,0.00,,,0.00,Wunderground v.1.15,2013-09-08 09:55:00,
2013-09-08 06:00:00,63.1,61.6,30.06,WSW,252,0.0,5.0,95,0.00,,,0.00,Wunderground v.1.15,2013-09-08 10:00:00,
2013-09-08 06:10:00,62.9,61.4,30.06,WSW,252,0.0,5.0,95,0.00,,,0.00,Wunderground v.1.15,2013-09-08 10:10:00,
2013-09-08 06:15:00,62.7,61.2,30.06,WSW,252,0.0,5.0,95,0.00,,,0.00,Wunderground v.1.15,2013-09-08 10:15:00,
2013-09-08 06:20:00,62.6,61.1,30.07,WSW,252,0.0,5.0,95,0.00,,,0.00,Wunderground v.1.15,2013-09-08 10:20:00,
2013-09-08 06:25:00,62.5,61.0,30.07,WSW,252,0.0,5.0,95,0.00,,,0.00,Wunderground v.1.15,2013-09-08 10:25:00,
2013-09-08 06:30:00,62.4,60.9,30.07,WSW,252,0.0,5.0,95,0.00,,,0.00,Wunderground v.1.15,2013-09-08 10:30:00,
2013-09-08 06:35:00,62.3,61.1,30.07,WSW,252,0.0,5.0,96,0.00,,,0.00,Wunderground v.1.15,2013-09-08 10:35:00,
2013-09-08 06:40:00,62.2,60.8,30.07,WSW,252,0.0,5.0,95,0.00,,,0.00,Wunderground v.1.15,2013-09-08 10:40:00,
2013-09-08 06:45:00,62.1,60.9,30.08,WSW,252,0.0,5.0,96,0.00,,,0.00,Wunderground v.1.15,2013-09-08 10:45:00,
2013-09-08 06:50:00,62.0,60.6,30.08,WSW,252,0.0,5.0,95,0.00,,,0.00,Wunderground v.1.15,2013-09-08 10:50:00,
2013-09-08 06:55:00,61.9,60.7,30.08,WSW,252,0.0,5.0,96,0.00,,,0.00,Wunderground v.1.15,2013-09-08 10:55:00,
2013-09-08 07:00:00,61.8,60.6,30.08,WSW,252,0.0,5.0,96,0.00,,,0.00,Wunderground v.1.15,2013-09-08 11:00:00,
2013-09-08 07:05:00,61.7,60.5,30.08,WSW,252,0.0,5.0,96,0.00,,,0.00,Wunderground v.1.15,2013-09-08 11:05:00,
2013-09-08 07:10:00,61.7,60.5,30.08,WSW,252,0.0,5.0,96,0.00,,,0.00,Wunderground v.1.15,2013-09-08 11:10:00,
2013-09-08 07:15:00,61.6,60.4,30.08,WSW,252,0.0,5.0,96,0.00,,,0.00,Wunderground v.1.15,2013-09-08 11:15:00,
2013-09-08 07:20:00,61.6,60.4,30.08,WSW,252,0.0,5.0,96,0.00,,,0.00,Wunderground v.1.15,2013-09-08 11:20:00,
2013-09-08 07:25:00,61.6,60.7,30.08,WSW,252,0.0,5.0,97,0.00,,,0.00,Wunderground v.1.15,2013-09-08 11:25:00,
2013-09-08 07:30:00,61.8,60.9,30.08,WSW,252,0.0,5.0,97,0.00,,,0.00,Wunderground v.1.15,2013-09-08 11:30:00,
2013-09-08 07:35:00,61.9,61.0,30.08,WSW,252,0.0,5.0,97,0.00,,,0.00,Wunderground v.1.15,2013-09-08 11:35:00,
2013-09-08 07:40:00,62.0,61.1,30.08,WSW,252,0.0,5.0,97,0.00,,,0.00,Wunderground v.1.15,2013-09-08 11:40:00,
2013-09-08 07:45:00,62.0,61.1,30.08,WSW,252,0.0,5.0,97,0.00,,,0.00,Wunderground v.1.15,2013-09-08 11:45:00,
2013-09-08 07:50:00,62.1,61.2,30.08,WSW,252,0.0,5.0,97,0.00,,,0.00,Wunderground v.1.15,2013-09-08 11:50:00,
2013-09-08 08:00:00,62.3,61.7,30.09,WSW,252,0.0,5.0,98,0.00,,,0.00,Wunderground v.1.15,2013-09-08 12:00:00,
2013-09-08 08:05:00,62.5,61.9,30.09,WSW,252,0.0,5.0,98,0.00,,,0.00,Wunderground v.1.15,2013-09-08 12:05:00,
2013-09-08 08:10:00,62.7,62.1,30.08,WSW,252,0.0,5.0,98,0.00,,,0.00,Wunderground v.1.15,2013-09-08 12:10:00,
2013-09-08 08:15:00,62.9,62.3,30.08,WSW,252,0.0,5.0,98,0.00,,,0.00,Wunderground v.1.15,2013-09-08 12:15:00,
2013-09-08 08:20:00,63.0,62.4,30.08,WSW,252,0.0,5.0,98,0.00,,,0.00,Wunderground v.1.15,2013-09-08 12:20:00,
2013-09-08 08:25:00,63.1,62.5,30.08,WSW,252,0.0,5.0,98,0.00,,,0.00,Wunderground v.1.15,2013-09-08 12:25:00,
2013-09-08 08:30:00,63.1,62.5,30.08,WSW,252,0.0,5.0,98,0.00,,,0.00,Wunderground v.1.15,2013-09-08 12:30:00,
2013-09-08 08:35:00,63.2,62.6,30.08,WSW,252,0.0,5.0,98,0.00,,,0.00,Wunderground v.1.15,2013-09-08 12:35:00,
2013-09-08 08:40:00,63.3,62.7,30.08,WSW,252,0.0,5.0,98,0.00,,,0.00,Wunderground v.1.15,2013-09-08 12:40:00,
2013-09-08 08:45:00,63.4,62.8,30.08,WSW,252,0.0,5.0,98,0.00,,,0.00,Wunderground v.1.15,2013-09-08 12:45:00,
2013-09-08 08:55:00,63.4,62.8,30.08,WSW,252,0.0,5.0,98,0.00,,,0.00,Wunderground v.1.15,2013-09-08 12:55:00,
2013-09-08 09:00:00,63.5,62.9,30.08,WSW,252,0.0,5.0,98,0.00,,,0.00,Wunderground v.1.15,2013-09-08 13:00:00,
2013-09-08 09:05:00,63.6,63.0,30.08,WSW,252,0.0,5.0,98,0.00,,,0.00,Wunderground v.1.15,2013-09-08 13:05:00,
2013-09-08 09:10:00,63.7,63.1,30.08,WSW,252,0.0,5.0,98,0.00,,,0.00,Wunderground v.1.15,2013-09-08 13:10:00,
2013-09-08 09:20:00,64.2,63.6,30.08,WSW,248,0.0,5.0,98,0.00,,,0.00,Wunderground v.1.15,2013-09-08 13:20:00,
2013-09-08 09:25:00,64.4,63.8,30.08,WSW,248,0.0,5.0,98,0.00,,,0.00,Wunderground v.1.15,2013-09-08 13:25:00,
2013-09-08 09:30:00,64.4,63.5,30.09,WSW,248,0.0,5.0,97,0.00,,,0.00,Wunderground v.1.15,2013-09-08 13:30:00,
2013-09-08 09:35:00,64.5,63.6,30.09,WSW,248,0.0,5.0,97,0.00,,,0.00,Wunderground v.1.15,2013-09-08 13:35:00,
2013-09-08 09:40:00,64.7,63.8,30.09,WSW,248,0.0,5.0,97,0.00,,,0.00,Wunderground v.1.15,2013-09-08 13:40:00,
2013-09-08 09:45:00,65.2,64.3,30.09,WSW,248,0.0,5.0,97,0.00,,,0.00,Wunderground v.1.15,2013-09-08 13:45:00,
2013-09-08 09:50:00,65.7,64.5,30.08,WSW,248,0.0,5.0,96,0.00,,,0.00,Wunderground v.1.15,2013-09-08 13:50:00,
2013-09-08 09:55:00,66.4,64.9,30.08,WSW,248,0.0,5.0,95,0.00,,,0.00,Wunderground v.1.15,2013-09-08 13:55:00,
2013-09-08 10:00:00,67.2,65.4,30.08,WSW,248,0.0,5.0,94,0.00,,,0.00,Wunderground v.1.15,2013-09-08 14:00:00,
2013-09-08 10:05:00,68.0,65.9,30.08,WSW,248,0.0,5.0,93,0.00,,,0.00,Wunderground v.1.15,2013-09-08 14:05:00,
2013-09-08 10:10:00,68.5,66.1,30.08,WSW,248,0.0,5.0,92,0.00,,,0.00,Wunderground v.1.15,2013-09-08 14:10:00,
2013-09-08 10:15:00,68.9,66.2,30.08,WSW,248,0.0,5.0,91,0.00,,,0.00,Wunderground v.1.15,2013-09-08 14:15:00,
2013-09-08 10:20:00,69.4,66.7,30.08,WSW,248,0.0,5.0,91,0.00,,,0.00,Wunderground v.1.15,2013-09-08 14:20:00,
2013-09-08 10:25:00,69.9,66.8,30.08,WSW,248,0.0,5.0,90,0.00,,,0.00,Wunderground v.1.15,2013-09-08 14:25:00,
2013-09-08 10:30:00,70.4,67.0,30.08,WSW,248,0.0,5.0,89,0.00,,,0.00,Wunderground v.1.15,2013-09-08 14:30:00,
2013-09-08 10:40:00,70.8,66.1,30.08,West,279,0.0,5.0,85,0.00,,,0.00,Wunderground v.1.15,2013-09-08 14:40:00,
2013-09-08 10:45:00,70.8,66.1,30.08,North,355,0.0,5.0,85,0.00,,,0.00,Wunderground v.1.15,2013-09-08 14:45:00,
2013-09-08 10:50:00,70.9,66.5,30.08,North,355,0.0,5.0,86,0.00,,,0.00,Wunderground v.1.15,2013-09-08 14:50:00,
2013-09-08 10:55:00,71.0,66.6,30.08,North,355,0.0,5.0,86,0.00,,,0.00,Wunderground v.1.15,2013-09-08 14:55:00,
2013-09-08 11:00:00,71.3,66.6,30.08,North,355,0.0,5.0,85,0.00,,,0.00,Wunderground v.1.15,2013-09-08 15:00:00,
2013-09-08 11:10:00,72.3,66.5,30.08,West,261,0.0,5.0,82,0.00,,,0.00,Wunderground v.1.15,2013-09-08 15:10:00,
2013-09-08 11:15:00,73.0,66.1,30.08,ENE,78,0.0,5.0,79,0.00,,,0.00,Wunderground v.1.15,2013-09-08 15:15:00,
2013-09-08 11:20:00,73.8,66.9,30.08,WSW,257,0.0,5.0,79,0.00,,,0.00,Wunderground v.1.15,2013-09-08 15:20:00,
2013-09-08 11:25:00,74.5,67.2,30.08,SSW,207,0.0,5.0,78,0.00,,,0.00,Wunderground v.1.15,2013-09-08 15:25:00,
2013-09-08 11:35:00,75.0,66.9,30.08,WSW,251,0.0,5.0,76,0.00,,,0.00,Wunderground v.1.15,2013-09-08 15:35:00,
2013-09-08 11:40:00,74.9,67.6,30.07,West,267,0.0,5.0,78,0.00,,,0.00,Wunderground v.1.15,2013-09-08 15:40:00,
2013-09-08 11:45:00,75.4,67.3,30.07,SSW,194,0.0,5.0,76,0.00,,,0.00,Wunderground v.1.15,2013-09-08 15:45:00,
2013-09-08 11:50:00,75.6,67.9,30.08,WNW,286,0.0,5.0,77,0.00,,,0.00,Wunderground v.1.15,2013-09-08 15:50:00,
2013-09-08 11:55:00,75.1,67.4,30.08,NE,37,0.0,5.0,77,0.00,,,0.00,Wunderground v.1.15,2013-09-08 15:55:00,
2013-09-08 12:00:00,75.2,67.9,30.07,WSW,243,0.0,5.0,78,0.00,,,0.00,Wunderground v.1.15,2013-09-08 16:00:00,
2013-09-08 12:05:00,75.0,67.3,30.07,WSW,238,0.0,5.0,77,0.00,,,0.00,Wunderground v.1.15,2013-09-08 16:05:00,
2013-09-08 12:10:00,75.3,68.0,30.07,NW,311,0.0,5.0,78,0.00,,,0.00,Wunderground v.1.15,2013-09-08 16:10:00,
2013-09-08 12:15:00,75.7,68.0,30.06,SSE,151,0.0,5.0,77,0.00,,,0.00,Wunderground v.1.15,2013-09-08 16:15:00,
2013-09-08 12:20:00,76.0,67.1,30.06,SSW,210,0.0,5.0,74,0.00,,,0.00,Wunderground v.1.15,2013-09-08 16:20:00,
2013-09-08 12:25:00,76.0,67.5,30.07,South,169,0.0,5.0,75,0.00,,,0.00,Wunderground v.1.15,2013-09-08 16:25:00,
2013-09-08 12:30:00,76.6,68.5,30.07,SW,231,0.0,5.0,76,0.00,,,0.00,Wunderground v.1.15,2013-09-08 16:30:00,
2013-09-08 12:35:00,77.0,68.5,30.07,East,89,0.0,5.0,75,0.00,,,0.00,Wunderground v.1.15,2013-09-08 16:35:00,
2013-09-08 12:40:00,76.7,67.0,30.07,West,262,0.0,5.0,72,0.00,,,0.00,Wunderground v.1.15,2013-09-08 16:40:00,
2013-09-08 12:45:00,76.0,67.5,30.06,SW,235,0.0,5.0,75,0.00,,,0.00,Wunderground v.1.15,2013-09-08 16:45:00,
2013-09-08 12:55:00,75.5,67.8,30.06,SW,235,0.0,5.0,77,0.00,,,0.00,Wunderground v.1.15,2013-09-08 16:55:00,
2013-09-08 13:00:00,74.9,66.8,30.06,South,191,0.0,5.0,76,0.00,,,0.00,Wunderground v.1.15,2013-09-08 17:00:00,
2013-09-08 13:05:00,74.7,66.2,30.06,SSW,209,0.0,5.0,75,0.00,,,0.00,Wunderground v.1.15,2013-09-08 17:05:00,
2013-09-08 13:10:00,74.8,66.7,30.06,South,171,0.0,5.0,76,0.00,,,0.00,Wunderground v.1.15,2013-09-08 17:10:00,
2013-09-08 13:15:00,75.3,67.6,30.06,WSW,242,0.0,5.0,77,0.00,,,0.00,Wunderground v.1.15,2013-09-08 17:15:00,
2013-09-08 13:20:00,75.6,67.5,30.06,SSW,206,0.0,5.0,76,0.00,,,0.00,Wunderground v.1.15,2013-09-08 17:20:00,
2013-09-08 13:25:00,75.4,67.7,30.05,SSW,207,0.0,5.0,77,0.00,,,0.00,Wunderground v.1.15,2013-09-08 17:25:00,
2013-09-08 13:30:00,75.0,66.5,30.06,SE,136,0.0,5.0,75,0.00,,,0.00,Wunderground v.1.15,2013-09-08 17:30:00,
2013-09-08 13:35:00,75.0,67.7,30.06,SE,136,0.0,5.0,78,0.00,,,0.00,Wunderground v.1.15,2013-09-08 17:35:00,
2013-09-08 13:40:00,75.6,68.6,30.06,SE,145,0.0,5.0,79,0.00,,,0.00,Wunderground v.1.15,2013-09-08 17:40:00,
2013-09-08 13:45:00,75.8,67.3,30.06,West,269,0.0,5.0,75,0.00,,,0.00,Wunderground v.1.15,2013-09-08 17:45:00,
2013-09-08 13:50:00,76.1,66.8,30.06,WNW,301,0.0,5.0,73,0.00,,,0.00,Wunderground v.1.15,2013-09-08 17:50:00,
2013-09-08 14:00:00,76.0,66.7,30.06,SW,225,0.0,5.0,73,0.00,,,0.00,Wunderground v.1.15,2013-09-08 18:00:00,
2013-09-08 14:10:00,76.8,67.5,30.06,WSW,248,0.0,5.0,73,0.00,,,0.00,Wunderground v.1.15,2013-09-08 18:10:00,
2013-09-08 14:15:00,76.7,67.4,30.05,WSW,248,0.0,5.0,73,0.00,,,0.00,Wunderground v.1.15,2013-09-08 18:15:00,
2013-09-08 14:20:00,76.2,67.3,30.06,WSW,248,0.0,5.0,74,0.00,,,0.00,Wunderground v.1.15,2013-09-08 18:20:00,
2013-09-08 14:25:00,75.5,66.6,30.05,WSW,248,0.0,5.0,74,0.00,,,0.00,Wunderground v.1.15,2013-09-08 18:25:00,
2013-09-08 14:30:00,74.9,66.4,30.05,WSW,248,0.0,5.0,75,0.00,,,0.00,Wunderground v.1.15,2013-09-08 18:30:00,
2013-09-08 14:35:00,74.4,66.7,30.05,SE,145,0.0,5.0,77,0.00,,,0.00,Wunderground v.1.15,2013-09-08 18:35:00,
2013-09-08 14:40:00,73.9,66.2,30.05,SSE,149,0.0,5.0,77,0.00,,,0.00,Wunderground v.1.15,2013-09-08 18:40:00,
2013-09-08 14:45:00,73.3,65.7,30.05,SSE,149,0.0,5.0,77,0.00,,,0.00,Wunderground v.1.15,2013-09-08 18:45:00,
2013-09-08 14:50:00,72.9,66.0,30.05,SSE,149,0.0,5.0,79,0.00,,,0.00,Wunderground v.1.15,2013-09-08 18:50:00,
2013-09-08 14:55:00,72.8,66.3,30.05,SSE,149,0.0,5.0,80,0.00,,,0.00,Wunderground v.1.15,2013-09-08 18:55:00,
2013-09-08 15:00:00,72.7,66.5,30.05,SSE,149,0.0,5.0,81,0.00,,,0.00,Wunderground v.1.15,2013-09-08 19:00:00,
2013-09-08 15:05:00,72.6,66.4,30.05,SSE,149,0.0,5.0,81,0.00,,,0.00,Wunderground v.1.15,2013-09-08 19:05:00,
2013-09-08 15:10:00,72.8,66.6,30.05,SSE,149,0.0,5.0,81,0.00,,,0.00,Wunderground v.1.15,2013-09-08 19:10:00,
2013-09-08 15:15:00,72.8,66.6,30.05,SSE,149,0.0,5.0,81,0.00,,,0.00,Wunderground v.1.15,2013-09-08 19:15:00,
2013-09-08 15:20:00,72.9,66.7,30.04,SSE,149,0.0,5.0,81,0.00,,,0.00,Wunderground v.1.15,2013-09-08 19:20:00,
2013-09-08 15:25:00,73.2,67.0,30.04,SSE,149,0.0,5.0,81,0.00,,,0.00,Wunderground v.1.15,2013-09-08 19:25:00,
2013-09-08 15:30:00,73.3,67.1,30.04,South,178,0.0,5.0,81,0.00,,,0.00,Wunderground v.1.15,2013-09-08 19:30:00,
2013-09-08 15:35:00,73.3,67.5,30.04,South,178,0.0,5.0,82,0.00,,,0.00,Wunderground v.1.15,2013-09-08 19:35:00,
2013-09-08 15:40:00,73.3,67.5,30.03,South,178,0.0,5.0,82,0.00,,,0.00,Wunderground v.1.15,2013-09-08 19:40:00,
2013-09-08 15:50:00,73.9,67.7,30.03,South,178,0.0,5.0,81,0.00,,,0.00,Wunderground v.1.15,2013-09-08 19:50:00,
2013-09-08 16:00:00,74.1,67.2,30.03,South,175,0.0,5.0,79,0.00,,,0.00,Wunderground v.1.15,2013-09-08 20:00:00,
2013-09-08 16:05:00,74.4,67.5,30.03,South,175,0.0,5.0,79,0.00,,,0.00,Wunderground v.1.15,2013-09-08 20:05:00,
2013-09-08 16:10:00,74.8,67.8,30.03,SSE,165,0.0,5.0,79,0.00,,,0.00,Wunderground v.1.15,2013-09-08 20:10:00,
2013-09-08 16:15:00,75.1,67.0,30.03,ESE,114,0.0,5.0,76,0.00,,,0.00,Wunderground v.1.15,2013-09-08 20:15:00,
2013-09-08 16:25:00,75.4,67.3,30.02,SSE,163,0.0,5.0,76,0.00,,,0.00,Wunderground v.1.15,2013-09-08 20:25:00,
2013-09-08 16:30:00,75.5,67.8,30.03,SSE,163,0.0,5.0,77,0.00,,,0.00,Wunderground v.1.15,2013-09-08 20:30:00,
2013-09-08 16:35:00,75.6,67.5,30.03,WSW,242,0.0,5.0,76,0.00,,,0.00,Wunderground v.1.15,2013-09-08 20:35:00,
2013-09-08 16:40:00,75.6,67.9,30.03,WSW,242,0.0,5.0,77,0.00,,,0.00,Wunderground v.1.15,2013-09-08 20:40:00,
2013-09-08 16:45:00,75.3,67.6,30.03,WSW,242,0.0,5.0,77,0.00,,,0.00,Wunderground v.1.15,2013-09-08 20:45:00,
2013-09-08 16:50:00,75.0,67.7,30.03,WSW,242,0.0,5.0,78,0.00,,,0.00,Wunderground v.1.15,2013-09-08 20:50:00,
2013-09-08 16:55:00,74.8,67.8,30.03,WSW,242,0.0,5.0,79,0.00,,,0.00,Wunderground v.1.15,2013-09-08 20:55:00,
2013-09-08 17:00:00,74.7,67.8,30.03,WSW,242,0.0,5.0,79,0.00,,,0.00,Wunderground v.1.15,2013-09-08 21:00:00,
2013-09-08 17:05:00,74.4,67.5,30.03,WSW,242,0.0,5.0,79,0.00,,,0.00,Wunderground v.1.15,2013-09-08 21:05:00,
2013-09-08 17:15:00,74.0,66.7,30.03,South,185,0.0,5.0,78,0.00,,,0.00,Wunderground v.1.15,2013-09-08 21:15:00,
2013-09-08 17:20:00,74.0,67.8,30.03,South,185,0.0,5.0,81,0.00,,,0.00,Wunderground v.1.15,2013-09-08 21:20:00,
2013-09-08 17:30:00,74.0,68.2,30.02,South,185,0.0,5.0,82,0.00,,,0.00,Wunderground v.1.15,2013-09-08 21:30:00,
2013-09-08 17:40:00,73.8,68.3,30.02,South,185,0.0,5.0,83,0.00,,,0.00,Wunderground v.1.15,2013-09-08 21:40:00,
2013-09-08 17:45:00,74.0,68.5,30.02,South,185,0.0,5.0,83,0.00,,,0.00,Wunderground v.1.15,2013-09-08 21:45:00,
2013-09-08 17:50:00,74.2,67.6,30.02,South,185,0.0,5.0,80,0.00,,,0.00,Wunderground v.1.15,2013-09-08 21:50:00,
2013-09-08 17:55:00,74.6,68.4,30.02,South,185,0.0,5.0,81,0.00,,,0.00,Wunderground v.1.15,2013-09-08 21:55:00,
2013-09-08 18:00:00,75.0,68.4,30.02,South,185,0.0,5.0,80,0.00,,,0.00,Wunderground v.1.15,2013-09-08 22:00:00,
2013-09-08 18:05:00,75.0,68.0,30.02,South,185,0.0,5.0,79,0.00,,,0.00,Wunderground v.1.15,2013-09-08 22:05:00,
2013-09-08 18:10:00,75.1,68.9,30.02,South,185,0.0,5.0,81,0.00,,,0.00,Wunderground v.1.15,2013-09-08 22:10:00,
2013-09-08 18:15:00,74.9,68.3,30.03,South,185,0.0,5.0,80,0.00,,,0.00,Wunderground v.1.15,2013-09-08 22:15:00,
2013-09-08 18:20:00,74.7,67.4,30.03,South,185,0.0,5.0,78,0.00,,,0.00,Wunderground v.1.15,2013-09-08 22:20:00,
2013-09-08 18:25:00,74.4,67.5,30.02,South,185,0.0,5.0,79,0.00,,,0.00,Wunderground v.1.15,2013-09-08 22:25:00,
2013-09-08 18:30:00,74.0,67.1,30.03,South,185,0.0,5.0,79,0.00,,,0.00,Wunderground v.1.15,2013-09-08 22:30:00,
2013-09-08 18:40:00,73.2,67.0,30.03,South,185,0.0,5.0,81,0.00,,,0.00,Wunderground v.1.15,2013-09-08 22:40:00,
2013-09-08 18:45:00,72.8,67.0,30.03,South,185,0.0,5.0,82,0.00,,,0.00,Wunderground v.1.15,2013-09-08 22:45:00,
2013-09-08 18:50:00,72.6,66.4,30.03,South,185,0.0,5.0,81,0.00,,,0.00,Wunderground v.1.15,2013-09-08 22:50:00,
2013-09-08 18:55:00,72.5,66.7,30.02,South,185,0.0,5.0,82,0.00,,,0.00,Wunderground v.1.15,2013-09-08 22:55:00,
2013-09-08 19:00:00,72.4,66.6,30.02,South,185,0.0,5.0,82,0.00,,,0.00,Wunderground v.1.15,2013-09-08 23:00:00,
2013-09-08 19:10:00,72.3,67.2,30.02,South,185,0.0,5.0,84,0.00,,,0.00,Wunderground v.1.15,2013-09-08 23:10:00,
2013-09-08 19:15:00,72.2,67.1,30.02,South,185,0.0,5.0,84,0.00,,,0.00,Wunderground v.1.15,2013-09-08 23:15:00,
2013-09-08 19:20:00,72.0,66.9,30.02,South,185,0.0,5.0,84,0.00,,,0.00,Wunderground v.1.15,2013-09-08 23:20:00,
2013-09-08 19:25:00,71.7,66.6,30.03,South,185,0.0,5.0,84,0.00,,,0.00,Wunderground v.1.15,2013-09-08 23:25:00,
2013-09-08 19:30:00,71.4,66.0,30.03,South,185,0.0,5.0,83,0.00,,,0.00,Wunderground v.1.15,2013-09-08 23:30:00,
2013-09-08 19:35:00,71.2,65.8,30.03,South,185,0.0,5.0,83,0.00,,,0.00,Wunderground v.1.15,2013-09-08 23:35:00,
2013-09-08 19:40:00,70.9,66.2,30.03,South,185,0.0,5.0,85,0.00,,,0.00,Wunderground v.1.15,2013-09-08 23:40:00,
2013-09-08 19:45:00,70.7,66.0,30.03,South,185,0.0,5.0,85,0.00,,,0.00,Wunderground v.1.15,2013-09-08 23:45:00,
2013-09-08 19:50:00,70.5,65.8,30.03,South,185,0.0,5.0,85,0.00,,,0.00,Wunderground v.1.15,2013-09-08 23:50:00,
2013-09-08 19:55:00,70.3,65.9,30.03,South,185,0.0,5.0,86,0.00,,,0.00,Wunderground v.1.15,2013-09-08 23:55:00,
2013-09-08 20:00:00,70.0,65.6,30.03,South,185,0.0,5.0,86,0.00,,,0.00,Wunderground v.1.15,2013-09-09 00:00:00,
2013-09-08 20:05:00,69.8,65.4,30.04,South,185,0.0,5.0,86,0.00,,,0.00,Wunderground v.1.15,2013-09-09 00:05:00,
2013-09-08 20:10:00,69.7,65.7,30.04,South,185,0.0,5.0,87,0.00,,,0.00,Wunderground v.1.15,2013-09-09 00:10:00,
2013-09-08 20:15:00,69.5,65.5,30.04,South,185,0.0,5.0,87,0.00,,,0.00,Wunderground v.1.15,2013-09-09 00:15:00,
2013-09-08 20:20:00,69.4,65.4,30.05,South,185,0.0,5.0,87,0.00,,,0.00,Wunderground v.1.15,2013-09-09 00:20:00,
2013-09-08 20:25:00,69.3,65.6,30.05,South,185,0.0,5.0,88,0.00,,,0.00,Wunderground v.1.15,2013-09-09 00:25:00,
2013-09-08 20:30:00,69.0,65.3,30.05,South,185,0.0,5.0,88,0.00,,,0.00,Wunderground v.1.15,2013-09-09 00:30:00,
2013-09-08 20:40:00,68.6,65.2,30.05,South,185,0.0,5.0,89,0.00,,,0.00,Wunderground v.1.15,2013-09-09 00:40:00,
2013-09-08 20:45:00,68.4,65.0,30.05,South,185,0.0,5.0,89,0.00,,,0.00,Wunderground v.1.15,2013-09-09 00:45:00,
2013-09-08 20:50:00,68.2,65.2,30.05,South,185,0.0,5.0,90,0.00,,,0.00,Wunderground v.1.15,2013-09-09 00:50:00,
2013-09-08 20:55:00,68.1,65.1,30.06,South,185,0.0,5.0,90,0.00,,,0.00,Wunderground v.1.15,2013-09-09 00:55:00,
2013-09-08 21:00:00,68.0,65.3,30.06,South,185,0.0,5.0,91,0.00,,,0.00,Wunderground v.1.15,2013-09-09 01:00:00,
2013-09-08 21:05:00,67.8,65.1,30.06,South,185,0.0,5.0,91,0.00,,,0.00,Wunderground v.1.15,2013-09-09 01:05:00,
2013-09-08 21:15:00,67.7,65.0,30.06,South,185,0.0,5.0,91,0.00,,,0.00,Wunderground v.1.15,2013-09-09 01:15:00,
2013-09-08 21:20:00,67.8,65.1,30.06,South,185,0.0,5.0,91,0.00,,,0.00,Wunderground v.1.15,2013-09-09 01:20:00,
2013-09-08 21:25:00,67.8,65.1,30.07,South,185,0.0,5.0,91,0.00,,,0.00,Wunderground v.1.15,2013-09-09 01:25:00,
2013-09-08 21:30:00,67.7,65.0,30.07,South,185,0.0,5.0,91,0.00,,,0.00,Wunderground v.1.15,2013-09-09 01:30:00,
2013-09-08 21:40:00,67.6,65.2,30.08,South,185,0.0,5.0,92,0.00,,,0.00,Wunderground v.1.15,2013-09-09 01:40:00,
2013-09-08 21:45:00,67.7,65.3,30.08,South,185,0.0,5.0,92,0.00,,,0.00,Wunderground v.1.15,2013-09-09 01:45:00,
2013-09-08 21:55:00,67.7,65.3,30.08,South,185,0.0,5.0,92,0.00,,,0.00,Wunderground v.1.15,2013-09-09 01:55:00,
2013-09-08 22:00:00,67.8,65.4,30.08,South,185,0.0,5.0,92,0.00,,,0.00,Wunderground v.1.15,2013-09-09 02:00:00,
2013-09-08 22:05:00,67.9,65.5,30.08,South,185,0.0,5.0,92,0.00,,,0.00,Wunderground v.1.15,2013-09-09 02:05:00,
2013-09-08 22:10:00,68.0,65.6,30.08,South,185,0.0,5.0,92,0.00,,,0.00,Wunderground v.1.15,2013-09-09 02:10:00,
2013-09-08 22:15:00,68.0,65.6,30.08,South,185,0.0,5.0,92,0.00,,,0.00,Wunderground v.1.15,2013-09-09 02:15:00,
2013-09-08 22:20:00,68.1,65.4,30.08,South,185,0.0,5.0,91,0.00,,,0.00,Wunderground v.1.15,2013-09-09 02:20:00,
2013-09-08 22:25:00,68.2,65.2,30.08,South,185,0.0,5.0,90,0.00,,,0.00,Wunderground v.1.15,2013-09-09 02:25:00,
2013-09-08 22:30:00,68.4,65.4,30.08,South,185,0.0,5.0,90,0.00,,,0.00,Wunderground v.1.15,2013-09-09 02:30:00,
2013-09-08 22:35:00,68.6,65.2,30.08,South,185,0.0,5.0,89,0.00,,,0.00,Wunderground v.1.15,2013-09-09 02:35:00,
2013-09-08 22:45:00,68.6,65.2,30.08,South,185,0.0,5.0,89,0.00,,,0.00,Wunderground v.1.15,2013-09-09 02:45:00,
2013-09-08 22:50:00,68.6,65.2,30.08,South,185,0.0,5.0,89,0.00,,,0.00,Wunderground v.1.15,2013-09-09 02:50:00,
2013-09-08 23:00:00,68.5,65.4,30.08,South,185,0.0,5.0,90,0.00,,,0.00,Wunderground v.1.15,2013-09-09 03:00:00,
2013-09-08 23:05:00,68.4,65.4,30.08,South,185,0.0,5.0,90,0.00,,,0.00,Wunderground v.1.15,2013-09-09 03:05:00,
2013-09-08 23:10:00,68.2,65.2,30.09,South,185,0.0,5.0,90,0.00,,,0.00,Wunderground v.1.15,2013-09-09 03:10:00,
2013-09-08 23:15:00,67.9,65.2,30.09,North,9,0.0,5.0,91,0.00,,,0.00,Wunderground v.1.15,2013-09-09 03:15:00,
2013-09-08 23:25:00,67.4,65.0,30.09,NE,40,0.0,5.0,92,0.00,,,0.00,Wunderground v.1.15,2013-09-09 03:25:00,
2013-09-08 23:30:00,67.2,65.1,30.09,NE,40,0.0,5.0,93,0.00,,,0.00,Wunderground v.1.15,2013-09-09 03:30:00,
2013-09-08 23:40:00,67.1,65.0,30.09,NE,40,0.0,5.0,93,0.00,,,0.00,Wunderground v.1.15,2013-09-09 03:40:00,
2013-09-08 23:45:00,67.1,65.0,30.09,NE,40,0.0,5.0,93,0.00,,,0.00,Wunderground v.1.15,2013-09-09 03:45:00,
2013-09-08 23:50:00,67.2,65.1,30.09,NE,40,0.0,5.0,93,0.00,,,0.00,Wunderground v.1.15,2013-09-09 03:50:00,
2013-09-08 23:55:00,67.2,65.1,30.09,NE,40,0.0,5.0,93,0.00,,,0.00,Wunderground v.1.15,2013-09-09 03:55:00,